Location: Asheville, NC
(35.6000°N, 82.5500°W)
Time: 14:39:21
(UTC-04:00)

XW-2D - Pass Details

Date: 11 January 2018
Orbit: 511 x 529 km, 97.5° (Epoch: 20 April)

Event Time Altitude Azimuth Distance (km) Brightness Sun altitude
Rises 18:01:51 0° 175° (S) 2,651 ? -5.5°
Reaches altitude 10° 18:03:58 10° 179° (S) 1,766 ? -5.9°
Maximum altitude 18:07:44 60° 259° (W) 606 ? -6.6°
Drops below altitude 10° 18:11:32 10° 341° (NNW) 1,777 ? -7.3°
Sets 18:13:40 0° 345° (NNW) 2,670 ? -7.7°
